{"data":{"norad_id":65955,"intl_designator":"2025-228J","name":"KUIPER-00126","alt_names":[],"object_type":"PAYLOAD","status":"ACTIVE","operator":null,"country":"US","launch_date":"2025-10-14","launch_site_code":"AFETR","launch_vehicle":null,"mission":null,"orbit_class":"UNKNOWN","rcs_meters":null,"size_class":null,"mass_kg":null,"dimensions":null,"purposes":[],"wikipedia_slug":null,"has_3d_model":false,"image_url":null,"decayed_at":null,"tle_current":{"epoch":"2026-09-19T14:34:29.390304Z","epoch_age_seconds":220819,"freshness":"STALE","line1":"1 65955U 25228J   26262.60728461  .00000784  00000+0  13187-3 0  9992","line2":"2 65955  51.8954 223.0804 0001076  82.2500 277.8584 14.79924207 51949","mean_motion":14.79924207,"eccentricity":0.0001076,"inclination_deg":51.8954,"raan_deg":223.0804,"arg_perigee_deg":82.25,"mean_anomaly_deg":277.8584,"bstar":0.00013187,"rev_number":5194,"period_min":97.30228029171,"perigee_km":628.80935807292,"apogee_km":630.31741519612,"semimajor_km":7007.7003866345,"source":"CELESTRAK","updated_at":"2026-09-21T09:00:15.679614Z"}}}